| time (UTC) | temp F | wind direction | speed MPH | gust MPH | rain 1hr in | rain 24hr in | rain mn in | humidity % | barometer mb |
| 20260502194528 | 67 | 90 | 0.0 | 0.0 | 0.00 | 0.00 | 0.00 | 59 | 1018.7 |
| 20260502194023 | 67 | 90 | 0.0 | 0.0 | 0.00 | 0.00 | 0.00 | 59 | 1018.8 |
| 20260502193523 | 67 | 90 | 0.0 | 0.0 | 0.00 | 0.00 | 0.00 | 59 | 1018.7 |
| 20260502193023 | 68 | 90 | 0.0 | 0.0 | 0.00 | 0.00 | 0.00 | 58 | 1018.7 |
| 20260502192522 | 68 | 90 | 0.0 | 0.0 | 0.00 | 0.00 | 0.00 | 58 | 1018.8 |
| 20260502192022 | 69 | 90 | 0.0 | 0.0 | 0.00 | 0.00 | 0.00 | 56 | 1018.7 |
| 20260502191523 | 69 | 55 | 0.0 | 0.0 | 0.00 | 0.00 | 0.00 | 56 | 1018.7 |
| 20260502191022 | 69 | 43 | 0.0 | 0.0 | 0.00 | 0.00 | 0.00 | 56 | 1018.7 |
| 20260502190522 | 70 | 43 | 0.0 | 0.0 | 0.00 | 0.00 | 0.00 | 56 | 1018.6 |
| 20260502190022 | 70 | 43 | 0.0 | 0.0 | 0.00 | 0.00 | 0.00 | 56 | 1018.7 |
| 20260502185521 | 70 | 43 | 0.0 | 0.0 | 0.00 | 0.00 | 0.00 | 56 | 1018.7 |
| 20260502185022 | 71 | 43 | 0.0 | 0.0 | 0.00 | 0.00 | 0.00 | 55 | 1018.6 |
| 20260502184525 | 72 | 43 | 0.0 | 0.0 | 0.00 | 0.00 | 0.00 | 54 | 1018.5 |
| 20260502184021 | 72 | 43 | 0.0 | 2.0 | 0.00 | 0.00 | 0.00 | 52 | 1018.4 |
| 20260502183521 | 73 | 44 | 0.0 | 2.0 | 0.00 | 0.00 | 0.00 | 51 | 1018.4 |
| 20260502183021 | 73 | 44 | 0.0 | 2.0 | 0.00 | 0.00 | 0.00 | 49 | 1018.3 |
| 20260502182523 | 74 | 44 | 0.0 | 2.0 | 0.00 | 0.00 | 0.00 | 48 | 1018.3 |
| 20260502182020 | 74 | 44 | 0.0 | 1.0 | 0.00 | 0.00 | 0.00 | 47 | 1018.3 |
| 20260502181520 | 74 | 44 | 0.0 | 2.0 | 0.00 | 0.00 | 0.00 | 47 | 1018.2 |
| 20260502181022 | 75 | 44 | 0.0 | 2.0 | 0.00 | 0.00 | 0.00 | 46 | 1018.2 |
| 20260502180521 | 75 | 40 | 0.0 | 5.0 | 0.00 | 0.00 | 0.00 | 46 | 1018.2 |
| 20260502164016 | 79 | 325 | 0.0 | 3.0 | 0.00 | 0.00 | 0.00 | 37 | 1018.1 |
| 20260502163516 | 79 | 319 | 0.0 | 2.0 | 0.00 | 0.00 | 0.00 | 37 | 1018.1 |
| 20260502163034 | 79 | 319 | 0.0 | 4.0 | 0.00 | 0.00 | 0.00 | 37 | 1018.2 |
| 20260502162518 | 79 | 319 | 1.0 | 4.0 | 0.00 | 0.00 | 0.00 | 36 | 1018.2 |
| 20260502162017 | 79 | 68 | 0.0 | 4.0 | 0.00 | 0.00 | 0.00 | 36 | 1018.3 |
| 20260502161524 | 79 | 68 | 2.0 | 4.0 | 0.00 | 0.00 | 0.00 | 37 | 1018.4 |
| 20260502161014 | 80 | 295 | 2.0 | 5.0 | 0.00 | 0.00 | 0.00 | 37 | 1018.5 |
| 20260502160513 | 79 | 60 | 0.0 | 4.0 | 0.00 | 0.00 | 0.00 | 38 | 1018.5 |
| 20260502152010 | 79 | 130 | 0.0 | 3.0 | 0.00 | 0.00 | 0.00 | 36 | 1018.9 |
| 20260502151509 | 80 | 109 | 0.0 | 5.0 | 0.00 | 0.00 | 0.00 | 36 | 1019.0 |
| 20260502151009 | 80 | 313 | 1.0 | 4.0 | 0.00 | 0.00 | 0.00 | 36 | 1019.0 |
| 20260502150509 | 80 | 9 | 0.0 | 5.0 | 0.00 | 0.00 | 0.00 | 36 | 1019.0 |
| 20260502130558 | 81 | 180 | 1.0 | 5.0 | 0.00 | 0.00 | 0.00 | 38 | 1020.9 |
| 20260502130105 | 81 | 180 | 1.0 | 4.0 | 0.00 | 0.00 | 0.00 | 38 | 1021.1 |
| 20260502123552 | 80 | 129 | 1.0 | 4.0 | 0.00 | 0.00 | 0.00 | 39 | 1021.2 |
| 20260502123111 | 80 | 41 | 1.0 | 3.0 | 0.00 | 0.00 | 0.00 | 40 | 1021.4 |
| 20260502122550 | 80 | 48 | 0.0 | 6.0 | 0.00 | 0.00 | 0.00 | 41 | 1021.5 |
| 20260502122052 | 79 | 327 | 0.0 | 6.0 | 0.00 | 0.00 | 0.00 | 41 | 1021.6 |
| 20260502121554 | 79 | 328 | 0.0 | 5.0 | 0.00 | 0.00 | 0.00 | 40 | 1021.7 |
| 20260502121047 | 79 | 37 | 0.0 | 6.0 | 0.00 | 0.00 | 0.00 | 41 | 1021.7 |
| 20260502120547 | 78 | 327 | 2.0 | 8.0 | 0.00 | 0.00 | 0.00 | 40 | 1021.9 |
| 20260502115545 | 80 | 178 | 1.0 | 4.0 | 0.00 | 0.00 | 0.00 | 42 | 1021.9 |
| 20260502115044 | 80 | 178 | 0.0 | 3.0 | 0.00 | 0.00 | 0.00 | 41 | 1022.0 |
| 20260502114543 | 79 | 178 | 0.0 | 3.0 | 0.00 | 0.00 | 0.00 | 42 | 1022.0 |
| 20260502114047 | 78 | 178 | 0.0 | 3.0 | 0.00 | 0.00 | 0.00 | 42 | 1022.2 |
| 20260502113543 | 77 | 178 | 0.0 | 3.0 | 0.00 | 0.00 | 0.00 | 43 | 1022.2 |
| 20260502113048 | 78 | 178 | 1.0 | 3.0 | 0.00 | 0.00 | 0.00 | 42 | 1022.3 |
| 20260502112540 | 79 | 178 | 1.0 | 3.0 | 0.00 | 0.00 | 0.00 | 41 | 1022.5 |
| 20260502112039 | 79 | 178 | 1.0 | 3.0 | 0.00 | 0.00 | 0.00 | 42 | 1022.6 |
| 20260502111543 | 77 | 178 | 1.0 | 4.0 | 0.00 | 0.00 | 0.00 | 44 | 1022.5 |
| 20260502111038 | 77 | 178 | 1.0 | 4.0 | 0.00 | 0.00 | 0.00 | 43 | 1022.7 |
| 20260502110537 | 77 | 178 | 1.0 | 4.0 | 0.00 | 0.00 | 0.00 | 43 | 1022.7 |
| 20260502110036 | 77 | 178 | 1.0 | 3.0 | 0.00 | 0.00 | 0.00 | 44 | 1022.9 |
| 20260502105535 | 76 | 178 | 0.0 | 3.0 | 0.00 | 0.00 | 0.00 | 44 | 1022.9 |
| 20260502105033 | 77 | 178 | 1.0 | 4.0 | 0.00 | 0.00 | 0.00 | 44 | 1023.0 |
| 20260502104535 | 76 | 178 | 1.0 | 4.0 | 0.00 | 0.00 | 0.00 | 45 | 1023.0 |
| 20260502104032 | 76 | 178 | 1.0 | 3.0 | 0.00 | 0.00 | 0.00 | 46 | 1023.1 |
| 20260502103531 | 76 | 178 | 0.0 | 4.0 | 0.00 | 0.00 | 0.00 | 46 | 1023.2 |
| 20260502103031 | 75 | 281 | 1.0 | 4.0 | 0.00 | 0.00 | 0.00 | 47 | 1023.2 |
| 20260502102530 | 76 | 165 | 0.0 | 2.0 | 0.00 | 0.00 | 0.00 | 46 | 1023.3 |
| 20260502102029 | 76 | 165 | 0.0 | 5.0 | 0.00 | 0.00 | 0.00 | 46 | 1023.5 |
| 20260502101529 | 75 | 165 | 0.0 | 5.0 | 0.00 | 0.00 | 0.00 | 46 | 1023.5 |
| 20260502101027 | 75 | 152 | 1.0 | 3.0 | 0.00 | 0.00 | 0.00 | 46 | 1023.6 |
| 20260502100526 | 74 | 165 | 0.0 | 3.0 | 0.00 | 0.00 | 0.00 | 47 | 1023.6 |
| 20260502091521 | 72 | 128 | 0.0 | 4.0 | 0.00 | 0.00 | 0.00 | 47 | 1024.3 |
| 20260502091016 | 71 | 69 | 1.0 | 4.0 | 0.00 | 0.00 | 0.00 | 48 | 1024.3 |
| 20260502090515 | 71 | 62 | 1.0 | 4.0 | 0.00 | 0.00 | 0.00 | 47 | 1024.4 |
| 20260502071045 | 58 | 319 | 2.0 | 6.0 | 0.00 | 0.00 | 0.00 | 60 | 1025.3 |
| 20260502070544 | 57 | 360 | 1.0 | 5.0 | 0.00 | 0.00 | 0.00 | 62 | 1025.4 |
| 20260502070059 | 56 | 317 | 2.0 | 4.0 | 0.00 | 0.00 | 0.00 | 63 | 1025.5 |
| 20260502065542 | 56 | 215 | 1.0 | 4.0 | 0.00 | 0.00 | 0.00 | 64 | 1025.5 |
| 20260502065039 | 55 | 227 | 1.0 | 5.0 | 0.00 | 0.00 | 0.00 | 65 | 1025.6 |
| 20260502064548 | 55 | 216 | 2.0 | 5.0 | 0.00 | 0.00 | 0.00 | 66 | 1025.5 |
| 20260502064038 | 54 | 256 | 1.0 | 3.0 | 0.00 | 0.00 | 0.00 | 67 | 1025.6 |
| 20260502063538 | 54 | 263 | 0.0 | 2.0 | 0.00 | 0.00 | 0.00 | 67 | 1025.6 |
| 20260502063037 | 53 | 236 | 0.0 | 3.0 | 0.00 | 0.00 | 0.00 | 68 | 1025.6 |
| 20260502062537 | 53 | 230 | 0.0 | 5.0 | 0.00 | 0.00 | 0.00 | 68 | 1025.5 |
| 20260502062037 | 52 | 313 | 2.0 | 4.0 | 0.00 | 0.00 | 0.00 | 69 | 1025.5 |
| 20260502061536 | 52 | 239 | 0.0 | 2.0 | 0.00 | 0.00 | 0.00 | 70 | 1025.5 |
| 20260502061037 | 51 | 239 | 0.0 | 3.0 | 0.00 | 0.00 | 0.00 | 70 | 1025.5 |
| 20260502060535 | 51 | 14 | 0.0 | 3.0 | 0.00 | 0.00 | 0.00 | 70 | 1025.5 |
| 20260502060034 | 51 | 264 | 0.0 | 5.0 | 0.00 | 0.00 | 0.00 | 70 | 1025.5 |
| 20260502055535 | 51 | 296 | 0.0 | 5.0 | 0.00 | 0.00 | 0.00 | 70 | 1025.5 |
| 20260502055033 | 50 | 298 | 0.0 | 3.0 | 0.00 | 0.00 | 0.00 | 70 | 1025.4 |
| 20260502054536 | 50 | 319 | 0.0 | 5.0 | 0.00 | 0.00 | 0.00 | 70 | 1025.5 |
| 20260502054032 | 50 | 265 | 0.0 | 5.0 | 0.00 | 0.00 | 0.00 | 70 | 1025.5 |
| 20260502053532 | 50 | 319 | 0.0 | 5.0 | 0.00 | 0.00 | 0.00 | 70 | 1025.5 |
| 20260502053034 | 50 | 333 | 3.0 | 6.0 | 0.00 | 0.00 | 0.00 | 70 | 1025.4 |
| 20260502052530 | 50 | 300 | 1.0 | 3.0 | 0.00 | 0.00 | 0.00 | 70 | 1025.5 |
| 20260502052030 | 50 | 273 | 0.0 | 3.0 | 0.00 | 0.00 | 0.00 | 70 | 1025.5 |
| 20260502051535 | 50 | 319 | 1.0 | 4.0 | 0.00 | 0.00 | 0.00 | 70 | 1025.4 |
| 20260502051029 | 50 | 325 | 1.0 | 4.0 | 0.00 | 0.00 | 0.00 | 70 | 1025.5 |
| 20260502050529 | 49 | 315 | 1.0 | 4.0 | 0.00 | 0.00 | 0.00 | 71 | 1025.5 |
| 20260502050030 | 49 | 305 | 0.0 | 4.0 | 0.00 | 0.00 | 0.00 | 71 | 1025.4 |
| 20260502045541 | 49 | 275 | 0.0 | 2.0 | 0.00 | 0.00 | 0.00 | 71 | 1025.3 |
| 20260502045027 | 49 | 240 | 0.0 | 3.0 | 0.00 | 0.00 | 0.00 | 70 | 1025.4 |
| 20260502044525 | 49 | 296 | 0.0 | 3.0 | 0.00 | 0.00 | 0.00 | 70 | 1025.3 |
| 20260502044025 | 49 | 355 | 1.0 | 2.0 | 0.00 | 0.00 | 0.00 | 70 | 1025.4 |
| 20260502043525 | 49 | 329 | 0.0 | 4.0 | 0.00 | 0.00 | 0.00 | 70 | 1025.4 |
| 20260502043030 | 49 | 329 | 1.0 | 4.0 | 0.00 | 0.00 | 0.00 | 70 | 1025.3 |
| 20260502042524 | 49 | 314 | 0.0 | 3.0 | 0.00 | 0.00 | 0.00 | 70 | 1025.3 |
| 20260502042024 | 49 | 313 | 1.0 | 3.0 | 0.00 | 0.00 | 0.00 | 69 | 1025.3 |
| 20260502041524 | 49 | 318 | 0.0 | 4.0 | 0.00 | 0.00 | 0.00 | 69 | 1025.3 |
| 20260502041023 | 49 | 311 | 1.0 | 5.0 | 0.00 | 0.00 | 0.00 | 69 | 1025.3 |
| 20260502040523 | 49 | 317 | 2.0 | 5.0 | 0.00 | 0.00 | 0.00 | 69 | 1025.3 |
| 20260502040023 | 49 | 307 | 2.0 | 5.0 | 0.00 | 0.00 | 0.00 | 70 | 1025.3 |
| 20260502035522 | 49 | 318 | 0.0 | 5.0 | 0.00 | 0.00 | 0.00 | 70 | 1025.3 |
| 20260502035021 | 49 | 318 | 1.0 | 5.0 | 0.00 | 0.00 | 0.00 | 70 | 1025.2 |
| 20260502034521 | 49 | 309 | 0.0 | 4.0 | 0.00 | 0.00 | 0.00 | 70 | 1025.3 |
| 20260502034022 | 49 | 319 | 1.0 | 3.0 | 0.00 | 0.00 | 0.00 | 70 | 1025.3 |
| 20260502033523 | 50 | 277 | 0.0 | 3.0 | 0.00 | 0.00 | 0.00 | 70 | 1025.3 |
| 20260502033023 | 50 | 315 | 0.0 | 5.0 | 0.00 | 0.00 | 0.00 | 70 | 1025.3 |
| 20260502032520 | 50 | 299 | 2.0 | 5.0 | 0.00 | 0.00 | 0.00 | 70 | 1025.3 |
| 20260502032021 | 49 | 19 | 0.0 | 4.0 | 0.00 | 0.00 | 0.00 | 70 | 1025.2 |
| 20260502031520 | 50 | 22 | 1.0 | 4.0 | 0.00 | 0.00 | 0.00 | 69 | 1025.2 |
| 20260502031022 | 50 | 286 | 0.0 | 4.0 | 0.00 | 0.00 | 0.00 | 70 | 1025.4 |
| 20260502030521 | 50 | 196 | 0.0 | 0.0 | 0.00 | 0.00 | 0.00 | 69 | 1025.3 |
| 20260502030020 | 50 | 196 | 0.0 | 0.0 | 0.00 | 0.00 | 0.00 | 69 | 1025.3 |
| 20260502025524 | 50 | 196 | 0.0 | 2.0 | 0.00 | 0.00 | 0.00 | 69 | 1025.4 |
| 20260502025019 | 50 | 196 | 0.0 | 2.0 | 0.00 | 0.00 | 0.00 | 69 | 1025.5 |
| 20260502024525 | 50 | 196 | 1.0 | 3.0 | 0.00 | 0.00 | 0.00 | 69 | 1025.6 |
| 20260502024018 | 50 | 262 | 1.0 | 4.0 | 0.00 | 0.00 | 0.00 | 69 | 1025.4 |
| 20260502023518 | 50 | 307 | 0.0 | 4.0 | 0.00 | 0.00 | 0.00 | 69 | 1025.2 |
| 20260502023019 | 50 | 360 | 0.0 | 3.0 | 0.00 | 0.00 | 0.00 | 69 | 1025.2 |
| 20260502022519 | 50 | 298 | 0.0 | 2.0 | 0.00 | 0.00 | 0.00 | 69 | 1025.1 |
| 20260502022020 | 50 | 298 | 0.0 | 3.0 | 0.00 | 0.00 | 0.00 | 70 | 1025.1 |
| 20260502021518 | 50 | 297 | 0.0 | 4.0 | 0.00 | 0.00 | 0.00 | 70 | 1025.2 |
| 20260502021017 | 50 | 313 | 1.0 | 4.0 | 0.00 | 0.00 | 0.00 | 70 | 1025.2 |
| 20260502020516 | 50 | 314 | 1.0 | 4.0 | 0.00 | 0.00 | 0.00 | 70 | 1025.2 |
| 20260502020015 | 50 | 212 | 0.0 | 2.0 | 0.00 | 0.00 | 0.00 | 70 | 1025.1 |
| 20260502015514 | 50 | 210 | 0.0 | 2.0 | 0.00 | 0.00 | 0.00 | 70 | 1025.1 |
| 20260502015016 | 50 | 209 | 0.0 | 2.0 | 0.00 | 0.00 | 0.00 | 70 | 1025.3 |
| 20260502014514 | 50 | 328 | 0.0 | 3.0 | 0.00 | 0.00 | 0.00 | 70 | 1025.3 |
| 20260502014015 | 50 | 328 | 0.0 | 5.0 | 0.00 | 0.00 | 0.00 | 70 | 1025.2 |
| 20260502013512 | 50 | 332 | 1.0 | 5.0 | 0.00 | 0.00 | 0.00 | 70 | 1025.3 |
| 20260502013013 | 50 | 323 | 0.0 | 2.0 | 0.00 | 0.00 | 0.00 | 70 | 1025.3 |
| 20260502012512 | 50 | 323 | 0.0 | 2.0 | 0.00 | 0.00 | 0.00 | 70 | 1025.3 |
| 20260502012013 | 50 | 313 | 0.0 | 1.0 | 0.00 | 0.00 | 0.00 | 70 | 1025.4 |
| 20260502011510 | 50 | 313 | 0.0 | 2.0 | 0.00 | 0.00 | 0.00 | 70 | 1025.4 |
| 20260502011009 | 51 | 313 | 0.0 | 2.0 | 0.00 | 0.00 | 0.00 | 70 | 1025.4 |
| 20260502010513 | 51 | 312 | 0.0 | 1.0 | 0.00 | 0.00 | 0.00 | 70 | 1025.4 |
| 20260502010019 | 51 | 312 | 0.0 | 5.0 | 0.00 | 0.00 | 0.00 | 70 | 1025.4 |
| 20260502005508 | 51 | 314 | 1.0 | 5.0 | 0.00 | 0.00 | 0.00 | 70 | 1025.4 |
| 20260502005012 | 51 | 312 | 1.0 | 4.0 | 0.00 | 0.00 | 0.00 | 70 | 1025.5 |
| 20260502004512 | 51 | 311 | 1.0 | 4.0 | 0.00 | 0.00 | 0.00 | 70 | 1025.5 |
| 20260502004015 | 51 | 309 | 1.0 | 4.0 | 0.00 | 0.00 | 0.00 | 70 | 1025.5 |
| 20260502003508 | 51 | 311 | 1.0 | 4.0 | 0.00 | 0.00 | 0.00 | 70 | 1025.4 |
| 20260502003006 | 51 | 313 | 0.0 | 4.0 | 0.00 | 0.00 | 0.00 | 70 | 1025.4 |
| 20260502002508 | 51 | 313 | 1.0 | 5.0 | 0.00 | 0.00 | 0.00 | 70 | 1025.5 |
| 20260502002005 | 51 | 318 | 2.0 | 5.0 | 0.00 | 0.00 | 0.00 | 70 | 1025.5 |
| 20260502001504 | 51 | 313 | 2.0 | 4.0 | 0.00 | 0.00 | 0.00 | 70 | 1025.6 |
| 20260502001005 | 51 | 322 | 0.0 | 3.0 | 0.00 | 0.00 | 0.00 | 70 | 1025.5 |
| 20260502000504 | 52 | 322 | 0.0 | 3.0 | 0.00 | 0.00 | 0.00 | 70 | 1025.5 |
| 20260502000003 | 52 | 322 | 0.0 | 3.0 | 0.00 | 0.00 | 0.00 | 70 | 1025.7 |
| 20260501235502 | 52 | 321 | 0.0 | 1.0 | 0.00 | 0.00 | 0.00 | 70 | 1025.7 |
| 20260501235001 | 52 | 321 | 0.0 | 2.0 | 0.00 | 0.00 | 0.00 | 69 | 1025.7 |
| 20260501234501 | 52 | 321 | 0.0 | 2.0 | 0.00 | 0.00 | 0.00 | 69 | 1025.7 |
| 20260501234002 | 52 | 321 | 0.0 | 6.0 | 0.00 | 0.00 | 0.00 | 69 | 1025.7 |
| 20260501233600 | 52 | 321 | 0.0 | 6.0 | 0.00 | 0.00 | 0.00 | 69 | 1025.6 |
| 20260501233103 | 52 | 313 | 2.0 | 6.0 | 0.00 | 0.00 | 0.00 | 69 | 1025.7 |
| 20260501232558 | 53 | 311 | 3.0 | 6.0 | 0.00 | 0.00 | 0.00 | 68 | 1025.7 |
| 20260501232100 | 53 | 311 | 0.0 | 2.0 | 0.00 | 0.00 | 0.00 | 68 | 1025.7 |
| 20260501231559 | 53 | 311 | 0.0 | 3.0 | 0.00 | 0.00 | 0.00 | 68 | 1025.7 |
| 20260501231056 | 53 | 311 | 0.0 | 3.0 | 0.00 | 0.00 | 0.00 | 68 | 1025.7 |
| 20260501230556 | 53 | 311 | 0.0 | 4.0 | 0.00 | 0.00 | 0.00 | 69 | 1025.7 |
| 20260501225555 | 54 | 306 | 1.0 | 3.0 | 0.00 | 0.00 | 0.00 | 68 | 1025.7 |
| 20260501225053 | 54 | 304 | 1.0 | 3.0 | 0.00 | 0.00 | 0.00 | 67 | 1025.7 |
| 20260501224553 | 54 | 304 | 0.0 | 4.0 | 0.00 | 0.00 | 0.00 | 67 | 1025.7 |
| 20260501224055 | 54 | 304 | 1.0 | 4.0 | 0.00 | 0.00 | 0.00 | 67 | 1025.8 |
| 20260501223551 | 54 | 304 | 0.0 | 2.0 | 0.00 | 0.00 | 0.00 | 67 | 1025.8 |
| 20260501223051 | 54 | 304 | 0.0 | 4.0 | 0.00 | 0.00 | 0.00 | 67 | 1025.7 |
| 20260501222555 | 54 | 304 | 0.0 | 4.0 | 0.00 | 0.00 | 0.00 | 67 | 1025.7 |
| 20260501222050 | 55 | 324 | 1.0 | 4.0 | 0.00 | 0.00 | 0.00 | 67 | 1025.6 |
| 20260501221555 | 54 | 324 | 0.0 | 4.0 | 0.00 | 0.00 | 0.00 | 67 | 1025.6 |
| 20260501221048 | 55 | 321 | 0.0 | 2.0 | 0.00 | 0.00 | 0.00 | 67 | 1025.5 |
| 20260501220547 | 55 | 322 | 0.0 | 4.0 | 0.00 | 0.00 | 0.00 | 67 | 1025.4 |
| 20260501220047 | 55 | 322 | 0.0 | 4.0 | 0.00 | 0.00 | 0.00 | 67 | 1025.5 |
| 20260501215547 | 55 | 321 | 1.0 | 4.0 | 0.00 | 0.00 | 0.00 | 67 | 1025.4 |
| 20260501215049 | 55 | 321 | 1.0 | 3.0 | 0.00 | 0.00 | 0.00 | 67 | 1025.4 |
| 20260501214550 | 55 | 322 | 0.0 | 3.0 | 0.00 | 0.00 | 0.00 | 66 | 1025.5 |
| 20260501214045 | 55 | 323 | 0.0 | 0.0 | 0.00 | 0.00 | 0.00 | 66 | 1025.5 |
| 20260501213545 | 56 | 323 | 0.0 | 0.0 | 0.00 | 0.00 | 0.00 | 66 | 1025.6 |
| 20260501213045 | 56 | 323 | 0.0 | 0.0 | 0.00 | 0.00 | 0.00 | 65 | 1025.5 |
| 20260501212546 | 56 | 323 | 0.0 | 0.0 | 0.00 | 0.00 | 0.00 | 64 | 1025.5 |
| 20260501212046 | 57 | 323 | 0.0 | 1.0 | 0.00 | 0.00 | 0.00 | 64 | 1025.6 |
| 20260501211544 | 57 | 323 | 0.0 | 1.0 | 0.00 | 0.00 | 0.00 | 63 | 1025.6 |
| 20260501211043 | 57 | 323 | 0.0 | 3.0 | 0.00 | 0.00 | 0.00 | 62 | 1025.6 |
| 20260501210543 | 58 | 323 | 0.0 | 3.0 | 0.00 | 0.00 | 0.00 | 61 | 1025.6 |
| 20260501210043 | 58 | 320 | 1.0 | 4.0 | 0.00 | 0.00 | 0.00 | 61 | 1025.4 |
| 20260501205543 | 58 | 313 | 0.0 | 4.0 | 0.00 | 0.00 | 0.00 | 61 | 1025.5 |
| 20260501205043 | 58 | 300 | 1.0 | 5.0 | 0.00 | 0.00 | 0.00 | 61 | 1025.5 |
| 20260501204543 | 58 | 318 | 2.0 | 5.0 | 0.00 | 0.00 | 0.00 | 61 | 1025.3 |
| 20260501204042 | 59 | 333 | 1.0 | 4.0 | 0.00 | 0.00 | 0.00 | 61 | 1025.3 |
| 20260501203542 | 59 | 198 | 1.0 | 4.0 | 0.00 | 0.00 | 0.00 | 60 | 1025.2 |
| 20260501203051 | 59 | 207 | 1.0 | 4.0 | 0.00 | 0.00 | 0.00 | 60 | 1025.2 |
| 20260501202542 | 60 | 302 | 0.0 | 2.0 | 0.00 | 0.00 | 0.00 | 59 | 1025.2 |
| 20260501202044 | 60 | 302 | 0.0 | 2.0 | 0.00 | 0.00 | 0.00 | 58 | 1025.2 |
| 20260501201547 | 61 | 303 | 0.0 | 4.0 | 0.00 | 0.00 | 0.00 | 57 | 1025.2 |
| 20260501201041 | 61 | 315 | 2.0 | 4.0 | 0.00 | 0.00 | 0.00 | 55 | 1025.2 |
| 20260501200541 | 62 | 315 | 1.0 | 4.0 | 0.00 | 0.00 | 0.00 | 55 | 1025.2 |
| 20260501200043 | 62 | 341 | 1.0 | 4.0 | 0.00 | 0.00 | 0.00 | 56 | 1025.2 |
| 20260501195541 | 62 | 342 | 2.0 | 4.0 | 0.00 | 0.00 | 0.00 | 56 | 1025.2 |
| 20260501195041 | 62 | 21 | 0.0 | 3.0 | 0.00 | 0.00 | 0.00 | 56 | 1025.2 |